• In Romania
  • List of Countries
  • For 7 days
  • Water Temperature
  • Satellite Maps
  • Weather Map
  • Weather Widgets
  • user-avatar
    Login

    Hourly Weather Ivanovka-Seleznevka

    Today, 16 July, Monday

    Time Temperature Precipitation Wind Pressure Humidity
    00:00 +20°C° 1.8 mm 3 mps 740 mmHg 91%
    01:00 +20°C° 0.2 mm 3 mps 740 mmHg 91%
    02:00 +20°C° 0.2 mm 3 mps 740 mmHg 92%
    03:00 +19°C° 0 mm 2 mps 740 mmHg 92%
    04:00 +20°C° 0.2 mm 3 mps 740 mmHg 92%
    05:00 +20°C° 0.2 mm 3 mps 740 mmHg 92%
    06:00 +20°C° 0.2 mm 3 mps 740 mmHg 92%
    07:00 +21°C° 0.4 mm 4 mps 740 mmHg 89%
    08:00 +23°C° 0.4 mm 4 mps 740 mmHg 86%
    09:00 +25°C° 0 mm 4 mps 740 mmHg 80%
    10:00 +26°C° 1.1 mm 5 mps 740 mmHg 77%
    11:00 +27°C° 1.1 mm 5 mps 739 mmHg 73%
    12:00 +28°C° 1.1 mm 5 mps 739 mmHg 70%
    13:00 +29°C° 0.5 mm 5 mps 739 mmHg 69%
    14:00 +29°C° 0.5 mm 5 mps 739 mmHg 68%
    15:00 +29°C° 0.5 mm 5 mps 738 mmHg 67%
    16:00 +29°C° 1.1 mm 4 mps 738 mmHg 71%
    17:00 +28°C° 1.1 mm 4 mps 738 mmHg 75%
    18:00 +27°C° 1.1 mm 3 mps 738 mmHg 78%
    19:00 +26°C° 0.9 mm 3 mps 738 mmHg 81%
    20:00 +25°C° 0.9 mm 3 mps 738 mmHg 83%
    21:00 +23°C° 0.9 mm 4 mps 738 mmHg 85%
    22:00 +22°C° 0.3 mm 4 mps 738 mmHg 88%
    23:00 +22°C° 0.3 mm 4 mps 738 mmHg 90%

    Tomorrow, 17 July, Tuesday

    Time Temperature Precipitation Wind Pressure Humidity
    00:00 +21°C° 0.3 mm 4 mps 737 mmHg 92%
    01:00 +21°C° 0.1 mm 4 mps 737 mmHg 93%
    02:00 +21°C° 0.1 mm 4 mps 737 mmHg 94%
    03:00 +20°C° 0.1 mm 4 mps 737 mmHg 95%
    04:00 +21°C° 0.1 mm 4 mps 737 mmHg 95%
    05:00 +21°C° 0.1 mm 5 mps 737 mmHg 95%
    06:00 +21°C° 0.1 mm 5 mps 737 mmHg 94%
    07:00 +22°C° 0.1 mm 5 mps 737 mmHg 91%
    08:00 +23°C° 0.1 mm 6 mps 737 mmHg 87%
    09:00 +24°C° 0.1 mm 6 mps 737 mmHg 83%
    10:00 +26°C° 0.7 mm 6 mps 736 mmHg 81%
    11:00 +27°C° 0.7 mm 6 mps 736 mmHg 78%
    12:00 +27°C° 0.7 mm 6 mps 736 mmHg 76%
    13:00 +27°C° 0.6 mm 6 mps 736 mmHg 75%
    14:00 +27°C° 0.6 mm 6 mps 736 mmHg 75%
    15:00 +27°C° 0.6 mm 5 mps 736 mmHg 75%
    16:00 +27°C° 0.5 mm 5 mps 735 mmHg 77%
    17:00 +27°C° 0.5 mm 4 mps 735 mmHg 79%
    18:00 +26°C° 0.5 mm 4 mps 735 mmHg 81%
    19:00 +25°C° 0.3 mm 4 mps 735 mmHg 84%
    20:00 +24°C° 0.3 mm 3 mps 735 mmHg 88%
    21:00 +21°C° 0.3 mm 3 mps 735 mmHg 91%
    22:00 +21°C° 0 mm 3 mps 735 mmHg 92%
    23:00 +20°C° 0 mm 3 mps 734 mmHg 94%

    Day after tomorrow, 18 July, Wednesday

    Time Temperature Precipitation Wind Pressure Humidity
    00:00 +20°C° 0 mm 3 mps 734 mmHg 95%
    01:00 +20°C° 0.1 mm 4 mps 734 mmHg 95%
    02:00 +20°C° 0.1 mm 4 mps 734 mmHg 95%
    03:00 +19°C° 0.1 mm 5 mps 734 mmHg 96%
    04:00 +19°C° 0.2 mm 5 mps 733 mmHg 95%
    05:00 +19°C° 0.2 mm 5 mps 733 mmHg 95%
    06:00 +19°C° 0.2 mm 6 mps 733 mmHg 95%
    07:00 +20°C° 0.1 mm 6 mps 733 mmHg 95%
    08:00 +20°C° 0.1 mm 5 mps 733 mmHg 94%
    09:00 +20°C° 0.1 mm 5 mps 733 mmHg 94%
    10:00 +20°C° 0.2 mm 5 mps 733 mmHg 91%
    11:00 +21°C° 0.2 mm 5 mps 733 mmHg 89%
    12:00 +21°C° 0.2 mm 5 mps 733 mmHg 86%
    13:00 +22°C° 0.2 mm 5 mps 733 mmHg 85%
    14:00 +22°C° 0.2 mm 5 mps 733 mmHg 83%
    15:00 +22°C° 0.2 mm 5 mps 733 mmHg 82%
    16:00 +22°C° 0.1 mm 5 mps 733 mmHg 82%
    17:00 +22°C° 0.1 mm 4 mps 733 mmHg 81%
    18:00 +23°C° 0.1 mm 4 mps 733 mmHg 81%
    19:00 +21°C° 0.1 mm 4 mps 733 mmHg 85%
    20:00 +20°C° 0.1 mm 3 mps 733 mmHg 90%
    21:00 +19°C° 0.1 mm 3 mps 733 mmHg 94%
    22:00 +19°C° 0 mm 2 mps 733 mmHg 95%
    23:00 +18°C° 0 mm 2 mps 733 mmHg 96%

    19 July, Thursday

    Time Temperature Precipitation Wind Pressure Humidity
    00:00 +18°C° 0 mm 2 mps 733 mmHg 97%
    01:00 +18°C° 0 mm 2 mps 733 mmHg 97%
    02:00 +18°C° 0 mm 2 mps 733 mmHg 98%
    03:00 +19°C° 0 mm 1 mps 733 mmHg 98%
    04:00 +19°C° 0.1 mm 1 mps 734 mmHg 97%
    05:00 +19°C° 0.1 mm 1 mps 734 mmHg 97%
    06:00 +19°C° 0.1 mm 2 mps 734 mmHg 97%
    07:00 +19°C° 0.1 mm 2 mps 734 mmHg 94%
    08:00 +20°C° 0.1 mm 2 mps 734 mmHg 92%
    09:00 +21°C° 0.1 mm 2 mps 735 mmHg 90%
    10:00 +23°C° 0.5 mm 2 mps 735 mmHg 86%
    11:00 +24°C° 0.5 mm 2 mps 735 mmHg 81%
    12:00 +25°C° 0.5 mm 3 mps 735 mmHg 77%
    13:00 +26°C° 0.8 mm 3 mps 735 mmHg 76%
    14:00 +26°C° 0.8 mm 3 mps 735 mmHg 75%
    15:00 +26°C° 0.8 mm 3 mps 735 mmHg 74%
    16:00 +26°C° 0.7 mm 3 mps 735 mmHg 76%
    17:00 +26°C° 0.7 mm 3 mps 736 mmHg 78%
    18:00 +26°C° 0.7 mm 3 mps 736 mmHg 80%
    19:00 +25°C° 0.3 mm 3 mps 736 mmHg 84%
    20:00 +24°C° 0.3 mm 3 mps 736 mmHg 88%
    21:00 +21°C° 0.3 mm 3 mps 736 mmHg 93%
    22:00 +21°C° 0.2 mm 3 mps 736 mmHg 93%
    23:00 +21°C° 0.2 mm 3 mps 737 mmHg 94%

    20 July, Friday

    Time Temperature Precipitation Wind Pressure Humidity
    00:00 +20°C° 0.2 mm 3 mps 737 mmHg 95%
    01:00 +20°C° 0 mm 3 mps 737 mmHg 95%
    02:00 +20°C° 0 mm 3 mps 737 mmHg 96%
    03:00 +19°C° 0 mm 3 mps 737 mmHg 96%
    04:00 +19°C° 0 mm 3 mps 738 mmHg 96%
    05:00 +20°C° 0 mm 3 mps 738 mmHg 95%
    06:00 +20°C° 0 mm 3 mps 738 mmHg 95%
    07:00 +21°C° 0 mm 3 mps 738 mmHg 90%
    08:00 +24°C° 0 mm 3 mps 738 mmHg 86%
    09:00 +25°C° 0 mm 4 mps 739 mmHg 82%
    10:00 +26°C° 0.2 mm 4 mps 739 mmHg 78%
    11:00 +27°C° 0.2 mm 4 mps 739 mmHg 73%
    12:00 +28°C° 0.2 mm 4 mps 739 mmHg 69%
    13:00 +28°C° 0.4 mm 4 mps 739 mmHg 68%
    14:00 +28°C° 0.4 mm 4 mps 739 mmHg 67%
    15:00 +29°C° 0.4 mm 4 mps 739 mmHg 66%
    16:00 +28°C° 0.4 mm 4 mps 739 mmHg 69%
    17:00 +28°C° 0.4 mm 3 mps 739 mmHg 72%
    18:00 +28°C° 0.4 mm 3 mps 739 mmHg 76%
    19:00 +26°C° 0.1 mm 3 mps 739 mmHg 80%
    20:00 +25°C° 0.1 mm 3 mps 739 mmHg 84%
    21:00 +23°C° 0.1 mm 2 mps 739 mmHg 88%
    22:00 +23°C° 0 mm 2 mps 739 mmHg 90%
    23:00 +21°C° 0 mm 2 mps 739 mmHg 92%

    21 July, Saturday

    Time Temperature Precipitation Wind Pressure Humidity
    00:00 +20°C° 0 mm 2 mps 739 mmHg 93%
    01:00 +20°C° 0 mm 2 mps 739 mmHg 94%
    02:00 +20°C° 0 mm 2 mps 739 mmHg 94%
    03:00 +19°C° 0 mm 2 mps 739 mmHg 95%
    04:00 +20°C° 0 mm 2 mps 739 mmHg 95%
    05:00 +20°C° 0 mm 2 mps 739 mmHg 94%
    06:00 +20°C° 0 mm 2 mps 739 mmHg 94%
    07:00 +22°C° 0 mm 3 mps 739 mmHg 89%
    08:00 +24°C° 0 mm 3 mps 739 mmHg 83%
    09:00 +26°C° 0 mm 3 mps 739 mmHg 78%
    10:00 +27°C° 0.3 mm 4 mps 739 mmHg 73%
    11:00 +28°C° 0.3 mm 4 mps 739 mmHg 68%
    12:00 +29°C° 0.3 mm 4 mps 739 mmHg 64%
    13:00 +28°C° 1.5 mm 4 mps 739 mmHg 65%
    14:00 +28°C° 1.5 mm 4 mps 739 mmHg 67%
    15:00 +28°C° 1.5 mm 5 mps 739 mmHg 69%
    16:00 +27°C° 0.9 mm 4 mps 739 mmHg 72%
    17:00 +27°C° 0.9 mm 3 mps 739 mmHg 75%
    18:00 +27°C° 0.9 mm 3 mps 738 mmHg 78%
    19:00 +26°C° 0.2 mm 3 mps 738 mmHg 81%
    20:00 +24°C° 0.2 mm 3 mps 738 mmHg 83%
    21:00 +22°C° 0.2 mm 3 mps 738 mmHg 86%
    22:00 +22°C° 0.1 mm 3 mps 738 mmHg 87%
    23:00 +21°C° 0.1 mm 2 mps 738 mmHg 88%
    Show more